Newberry, SC

9:11 AM EDT on September 25, 2016 (GMT -0400)
Newberry

Weather History for KEOE - January, 2013

Change the Weather History Date:

Wednesday, January 9, 2013

  Actual Average (KFDW) Record (KFDW)
Temperature  
Mean Temperature 56 °F -  
Max Temperature 71 °F 49 °F 57 °F (2012)
Min Temperature 42 °F 29 °F 21 °F (2015)
Degree Days  
Heating Degree Days 8    
Growing Degree Days 6 (Base 50)    
Moisture  
Dew Point 46 °F    
Average Humidity 79    
Maximum Humidity 93    
Minimum Humidity 43    
Precipitation  
Precipitation 0.00 in - - ()
Sea Level Pressure  
Sea Level Pressure 30.42 in    
Wind  
Wind Speed 4 mph (NNE)    
Max Wind Speed 8 mph    
Max Gust Speed -    
Visibility 10 miles    
Events      
Averages and records for this station are not official NWS values.
T = Trace of Precipitation, MM = Missing Value Source: NWS Daily Summary

Daily Weather History Graph

Daily Weather History Graph

Search for Another Location

Airport or City:

Trip Planner

Search our weather history database for the weather conditions in past years. The results will help you decide how hot, cold, wet, or windy it might be!

Date:

Astronomy

Jan. 09, 2013 Rise Set
Actual Time 7:33 AM EST 5:34 PM EST
Civil Twilight 7:05 AM EST 6:02 PM EST
Nautical Twilight 6:34 AM EST 6:33 PM EST
Astronomical Twilight 6:04 AM EST 7:03 PM EST
Moon 5:11 AM EST (1/9) 3:35 PM EST (1/9)
Length of Visible Light 10h 56m
Length of Day
10h 01m
Waning Crescent, 6% of the Moon is Illuminated
Jan 9
Waning Crescent
Jan 11
New
Jan 18
First Quarter
Jan 26
Full
Feb 3
Last Quarter

Hourly Weather History & Observations

Time (EST) Temp. Windchill Dew Point Humidity Pressure Visibility Wind Dir Wind Speed Gust Speed Precip Events Conditions
12:15 AM 44.6 °F 43.1 °F 41.0 °F 87% 30.40 in 10.0 mi NNE 3.5 mph - N/A   Clear
12:35 AM 44.6 °F 43.1 °F 41.0 °F 87% 30.39 in 10.0 mi NE 3.5 mph - N/A   Clear
12:55 AM 44.6 °F 41.4 °F 41.0 °F 87% 30.39 in 10.0 mi NNE 5.8 mph - N/A   Clear
1:15 AM 44.6 °F - 41.0 °F 87% 30.39 in 10.0 mi Calm Calm - N/A   Clear
1:35 AM 44.6 °F 43.1 °F 41.0 °F 87% 30.40 in 10.0 mi North 3.5 mph - N/A   Clear
1:55 AM 42.8 °F 39.3 °F 41.0 °F 93% 30.40 in 10.0 mi North 5.8 mph - N/A   Clear
2:15 AM 42.8 °F 39.3 °F 41.0 °F 93% 30.40 in 10.0 mi North 5.8 mph - N/A   Clear
2:35 AM 42.8 °F 40.1 °F 41.0 °F 93% 30.41 in 10.0 mi North 4.6 mph - N/A   Clear
2:55 AM 42.8 °F 40.1 °F 41.0 °F 93% 30.41 in 10.0 mi North 4.6 mph - N/A   Clear
3:15 AM 42.8 °F 40.1 °F 41.0 °F 93% 30.41 in 10.0 mi North 4.6 mph - N/A   Clear
3:35 AM 42.8 °F 40.1 °F 41.0 °F 93% 30.41 in 10.0 mi North 4.6 mph - N/A   Clear
3:55 AM 42.8 °F 39.3 °F 41.0 °F 93% 30.41 in 10.0 mi North 5.8 mph - N/A   Clear
4:15 AM 42.8 °F 39.3 °F 41.0 °F 93% 30.41 in 10.0 mi North 5.8 mph - N/A   Clear
4:35 AM 42.8 °F 40.1 °F 41.0 °F 93% 30.41 in 10.0 mi NNE 4.6 mph - N/A   Clear
4:55 AM 42.8 °F 40.1 °F 41.0 °F 93% 30.41 in 10.0 mi NNE 4.6 mph - N/A   Clear
5:15 AM 42.8 °F 39.3 °F 41.0 °F 93% 30.40 in 10.0 mi NNE 5.8 mph - N/A   Clear
5:35 AM 42.8 °F 38.6 °F 41.0 °F 93% 30.41 in 10.0 mi NNE 6.9 mph - N/A   Clear
5:55 AM 42.8 °F 39.3 °F 41.0 °F 93% 30.41 in 10.0 mi NNE 5.8 mph - N/A   Clear
6:15 AM 42.8 °F 38.6 °F 41.0 °F 93% 30.41 in 10.0 mi NNE 6.9 mph - N/A   Clear
6:35 AM 42.8 °F 38.6 °F 41.0 °F 93% 30.41 in 10.0 mi NNE 6.9 mph - N/A   Clear
6:55 AM 42.8 °F 38.0 °F 41.0 °F 93% 30.41 in 10.0 mi NNE 8.1 mph - N/A   Clear
7:15 AM 42.8 °F 39.3 °F 41.0 °F 93% 30.42 in 10.0 mi North 5.8 mph - N/A   Clear
7:35 AM 42.8 °F 38.6 °F 41.0 °F 93% 30.43 in 10.0 mi NNE 6.9 mph - N/A   Clear
7:55 AM 42.8 °F 40.1 °F 41.0 °F 93% 30.44 in 10.0 mi North 4.6 mph - N/A   Clear
8:15 AM 44.6 °F 42.2 °F 41.0 °F 87% 30.45 in 10.0 mi NNE 4.6 mph - N/A   Clear
8:35 AM 46.4 °F 43.5 °F 42.8 °F 87% 30.45 in 10.0 mi NNE 5.8 mph - N/A   Clear
9:15 AM 50.0 °F - 42.8 °F 76% 30.47 in 10.0 mi NNE 6.9 mph - N/A   Clear
9:35 AM 51.8 °F - 42.8 °F 71% 30.47 in 10.0 mi NNE 4.6 mph - N/A   Clear
9:55 AM 53.6 °F - 44.6 °F 72% 30.48 in 10.0 mi North 3.5 mph - N/A   Clear
10:15 AM 53.6 °F - 44.6 °F 72% 30.49 in 10.0 mi Calm Calm - N/A   Scattered Clouds
10:35 AM 57.2 °F - 44.6 °F 63% 30.48 in 10.0 mi NE 3.5 mph - N/A   Mostly Cloudy
10:55 AM 59.0 °F - 46.4 °F 63% 30.47 in 10.0 mi NNE 3.5 mph - N/A   Scattered Clouds
11:15 AM 60.8 °F - 46.4 °F 59% 30.47 in 10.0 mi Calm Calm - N/A   Clear
12:35 PM 66.2 °F - 48.2 °F 52% 30.43 in 10.0 mi Calm Calm - N/A   Overcast
1:15 PM 69.8 °F - 48.2 °F 46% 30.39 in 10.0 mi SSE 5.8 mph - N/A   Scattered Clouds
1:35 PM 71.6 °F - 48.2 °F 43% 30.39 in 10.0 mi Calm Calm - N/A   Clear
1:55 PM 71.6 °F - 50.0 °F 46% 30.39 in 7.0 mi Calm Calm - N/A   Clear
2:15 PM 69.8 °F - 50.0 °F 49% 30.39 in 10.0 mi Calm Calm - N/A   Clear
2:35 PM 69.8 °F - 50.0 °F 49% 30.39 in 10.0 mi Calm Calm - N/A   Clear
2:55 PM 69.8 °F - 51.8 °F 53% 30.40 in 10.0 mi North 5.8 mph - N/A   Clear
3:15 PM 68.0 °F - 51.8 °F 56% 30.40 in 10.0 mi North 4.6 mph - N/A   Clear
3:35 PM 64.4 °F - 51.8 °F 64% 30.40 in 10.0 mi North 5.8 mph - N/A   Clear
4:15 PM 62.6 °F - 50.0 °F 63% 30.41 in 10.0 mi North 5.8 mph - N/A   Clear
4:35 PM 62.6 °F - 50.0 °F 63% 30.41 in 10.0 mi NNE 4.6 mph - N/A   Clear
4:55 PM 62.6 °F - 50.0 °F 63% 30.41 in 10.0 mi Calm Calm - N/A   Clear
5:15 PM 60.8 °F - 51.8 °F 72% 30.42 in 10.0 mi Calm Calm - N/A   Clear
5:35 PM 60.8 °F - 51.8 °F 72% 30.42 in 10.0 mi Calm Calm - N/A   Clear
5:55 PM 59.0 °F - 51.8 °F 77% 30.42 in 10.0 mi Calm Calm - N/A   Clear
6:15 PM 59.0 °F - 51.8 °F 77% 30.43 in 10.0 mi Calm Calm - N/A   Clear
6:35 PM 57.2 °F - 51.8 °F 82% 30.42 in 10.0 mi North 3.5 mph - N/A   Clear
6:55 PM 55.4 °F - 51.8 °F 88% 30.43 in 10.0 mi North 6.9 mph - N/A   Clear
7:15 PM 59.0 °F - 50.0 °F 72% 30.43 in 10.0 mi North 4.6 mph - N/A   Clear
7:35 PM 59.0 °F - 50.0 °F 72% 30.43 in 10.0 mi NNE 3.5 mph - N/A   Clear
7:55 PM 57.2 °F - 50.0 °F 77% 30.42 in 10.0 mi NE 5.8 mph - N/A   Clear
8:15 PM 59.0 °F - 50.0 °F 72% 30.41 in 10.0 mi ENE 3.5 mph - N/A   Clear
8:35 PM 59.0 °F - 50.0 °F 72% 30.41 in 10.0 mi East 3.5 mph - N/A   Clear
8:55 PM 55.4 °F - 50.0 °F 82% 30.42 in 10.0 mi SSE 3.5 mph - N/A   Clear
9:15 PM 55.4 °F - 50.0 °F 82% 30.42 in 10.0 mi Calm Calm - N/A   Clear
9:35 PM 55.4 °F - 50.0 °F 82% 30.42 in 10.0 mi Calm Calm - N/A   Clear
9:55 PM 53.6 °F - 50.0 °F 88% 30.42 in 10.0 mi Calm Calm - N/A   Clear
10:15 PM 53.6 °F - 50.0 °F 88% 30.44 in 10.0 mi Calm Calm - N/A   Clear
10:35 PM 53.6 °F - 50.0 °F 88% 30.46 in 10.0 mi Calm Calm - N/A   Mostly Cloudy
10:55 PM 53.6 °F - 50.0 °F 88% 30.46 in 10.0 mi Calm Calm - N/A   Overcast
11:15 PM 53.6 °F - 50.0 °F 88% 30.46 in 10.0 mi Calm Calm - N/A   Overcast
11:35 PM 55.4 °F - 50.0 °F 82% 30.46 in 10.0 mi NNE 5.8 mph - N/A   Mostly Cloudy
11:55 PM 53.6 °F - 50.0 °F 88% 30.46 in 10.0 mi North 4.6 mph - N/A   Scattered Clouds